Vorticity
9 9 10 10 11 11 10 9 9 9 9 8 9 10 10 10 10 8 7 6 6 7 7 9 10 10 9 9 9 8 7 6 5 6 7 7 6 6 6 7 6 6
7 7 7 8 9 9 9 9 8 8 8 8 7 7 7 8 8 8 8 6 5 4 3 4 4 6 7 7 7 7 7 7 5 3 4 4 4 5 5 6 6 6
5 5 5 4 5 6 7 7 7 7 7 7 6 6 6 5 6 6 7 7 7 7 5 3 2 1 2 3 4 5 5 6 7 6 4 3 2 2 2 4 5 5
5 6 5 4 4 5 6 5 5 6 6 6 6 7 7 7 7 7 7 7 8 9 9 8 8 6 5 4 4 4 5 4 4 6 7 7 6 4 3 2 3 4
6 6 4 4 4 5 6 5 4 4 5 6 6 6 6 6 5 4 4 4 4 6 7 8 9 8 8 9 8 7 7 6 5 4 5 7 8 8 7 6 4 4
13 12 10 7 6 7 7 6 6 6 6 7 7 7 7 6 6 6 4 4 4 4 5 6 7 8 7 7 8 8 8 8 8 6 5 5 6 7 8 9 8 6
13 14 15 14 12 11 10 9 9 9 9 9 8 9 10 10 10 10 9 9 8 7 6 6 6 6 7 7 7 7 7 7 7 7 7 6 5 6 6 7 9 8
6 7 9 13 14 13 14 14 13 12 11 12 11 11 10 11 10 10 10 10 10 9 8 8 8 7 7 7 7 7 6 6 6 5 5 6 6 6 6 6 6 7
2 3 4 9 11 11 11 10 9 9 11 10 8 8 8 8 9 8 8 8 8 9 9 8 8 8 7 7 7 7 7 6 6 6 5 5 6 6 7 7 6 7
1 1 3 5 5 5 7 6 5 6 7 5 2 3 5 7 8 8 9 10 10 10 11 11 10 10 10 10 10 9 10 9 8 8 7 6 7 6 6 7 7 8
2 3 5 5 3 5 9 8 5 3 4 3 2 2 4 7 10 11 10 10 11 11 12 13 13 14 14 14 14 13 13 12 11 10 10 9 9 8 8 8 7 8
8 8 6 6 4 6 10 7 1 2 5 4 3 2 5 10 10 10 9 8 10 11 12 14 14 15 16 17 18 18 17 17 16 14 13 11 10 11 11 10 9 8
10 12 8 5 5 7 10 6 1 4 7 4 2 2 5 10 9 7 8 9 10 11 10 11 12 11 13 13 14 16 16 17 18 18 17 15 13 12 12 13 13 11
9 11 12 7 4 8 10 7 4 5 5 2 2 3 5 8 9 7 8 8 8 8 7 9 11 11 12 12 11 12 12 12 14 15 17 17 16 15 14 13 13 12
5 1 14 12 4 7 9 7 7 5 4 3 2 3 5 8 8 6 7 8 6 7 8 10 11 11 11 12 12 13 13 13 12 11 12 14 15 16 16 14 13 12
10 -1 5 8 7 12 11 7 7 4 3 3 2 3 5 6 7 5 6 6 5 7 10 7 3 3 4 6 8 9 12 13 14 14 12 11 12 13 14 14 14 13
27 4 -4 -0 2 8 14 13 9 6 5 4 1 3 6 5 5 4 5 5 4 7 9 2 -3 -1 -1 0 3 5 7 9 12 16 16 14 12 11 11 12 13 13
7 -8 -0 9 2 3 9 10 8 5 4 5 3 3 6 5 2 3 5 4 2 7 10 -0 -6 -3 -4 -4 -1 0 1 2 5 13 18 18 17 13 11 10 10 11
-11 -13 -2 4 15 30 19 1 5 8 4 6 6 5 6 4 2 4 5 2 2 10 10 -1 -6 -2 0 1 2 2 1 -1 -1 8 17 19 18 17 16 14 12 11
-0 0 -3 -9 13 46 34 5 4 11 8 8 7 7 7 3 2 5 4 2 5 8 5 -1 -2 2 2 3 4 4 3 1 2 9 16 17 15 15 16 16 15 14
2 3 5 -4 -1 25 35 22 17 16 11 9 9 7 6 3 2 5 4 3 4 3 -0 -0 2 3 2 2 2 2 -0 1 8 17 19 16 13 12 13 14 14 15
23 18 18 9 1 6 6 1 11 18 11 7 10 8 5 4 3 4 5 4 3 2 1 3 4 2 2 3 3 3 1 4 16 24 21 15 12 10 11 12 12 13
15 16 14 8 11 15 2 -5 13 22 10 7 11 8 5 5 4 5 6 5 4 4 4 4 3 2 3 4 4 5 8 13 19 21 16 13 14 16 18 19 19 19
-1 4 4 2 13 21 13 15 25 20 8 9 12 8 6 5 5 5 5 4 6 6 4 2 2 3 4 4 5 10 15 18 17 16 17 20 22 23 23 22 22 22
19 16 4 -7 -2 7 11 21 26 17 9 9 9 7 6 5 5 5 5 6 7 4 2 2 2 2 2 5 12 17 17 16 18 20 23 22 19 17 16 15 14 14
23 34 29 9 0 10 20 16 7 4 7 8 6 6 6 5 6 6 6 7 4 1 2 3 1 2 6 12 16 16 15 18 21 21 17 13 10 10 11 12 14 15
Height
5734 5734 5735 5736 5736 5737 5737 5737 5738 5738 5739 5740 5741 5742 5742 5743 5743 5743 5744 5744 5744 5745 5745 5746 5747 5748 5749 5750 5750 5750 5751 5751 5752 5752 5752 5753 5754 5754 5755 5755 5756 5757
5730 5731 5732 5732 5733 5734 5734 5734 5735 5736 5736 5737 5738 5738 5739 5740 5740 5740 5741 5741 5741 5742 5743 5743 5744 5745 5745 5746 5746 5747 5747 5747 5747 5748 5748 5749 5750 5750 5751 5751 5752 5752
5726 5727 5728 5729 5730 5731 5731 5731 5732 5732 5733 5734 5734 5735 5736 5736 5737 5737 5737 5738 5738 5738 5739 5740 5740 5741 5741 5742 5742 5742 5743 5743 5743 5743 5743 5744 5745 5746 5746 5747 5747 5748
5722 5723 5724 5725 5726 5726 5727 5727 5728 5729 5729 5730 5730 5731 5732 5732 5733 5733 5733 5734 5734 5734 5734 5735 5736 5736 5737 5737 5737 5738 5738 5739 5739 5739 5739 5739 5740 5741 5741 5742 5742 5743
5718 5719 5719 5720 5721 5722 5723 5723 5724 5724 5725 5725 5726 5726 5727 5727 5728 5728 5728 5729 5729 5730 5730 5730 5731 5731 5732 5732 5732 5732 5733 5733 5734 5734 5735 5735 5735 5735 5736 5736 5737 5737
5714 5715 5715 5716 5717 5717 5718 5718 5719 5720 5720 5721 5721 5721 5722 5722 5722 5723 5723 5724 5724 5725 5725 5725 5726 5726 5726 5726 5727 5727 5727 5728 5729 5729 5729 5730 5730 5730 5731 5731 5731 5731
5711 5711 5712 5712 5712 5713 5713 5714 5714 5715 5715 5716 5716 5716 5717 5717 5717 5718 5718 5718 5719 5719 5719 5720 5720 5720 5720 5721 5721 5721 5722 5722 5723 5724 5724 5724 5724 5725 5725 5726 5726 5726
5707 5707 5708 5708 5708 5708 5708 5709 5709 5710 5710 5711 5711 5711 5712 5712 5712 5713 5713 5713 5713 5713 5714 5714 5714 5714 5714 5714 5715 5715 5715 5716 5716 5717 5717 5718 5718 5718 5718 5719 5720 5721
5704 5704 5704 5704 5704 5704 5704 5704 5705 5705 5706 5706 5706 5706 5707 5707 5707 5707 5707 5707 5708 5708 5708 5708 5708 5708 5708 5708 5708 5709 5709 5709 5709 5710 5710 5711 5711 5711 5711 5712 5713 5714
5699 5699 5699 5699 5699 5700 5700 5700 5700 5701 5701 5701 5701 5701 5702 5702 5702 5702 5702 5702 5702 5702 5702 5702 5702 5702 5702 5702 5702 5702 5702 5702 5702 5702 5703 5703 5704 5704 5704 5705 5705 5706
5695 5694 5694 5694 5694 5695 5695 5695 5696 5696 5696 5696 5696 5696 5697 5697 5697 5697 5697 5697 5697 5697 5697 5696 5696 5696 5695 5695 5695 5695 5695 5695 5695 5695 5696 5696 5696 5696 5696 5697 5697 5698
5690 5689 5689 5689 5689 5689 5689 5690 5690 5690 5691 5691 5691 5691 5692 5692 5692 5692 5692 5692 5691 5691 5691 5690 5690 5689 5689 5689 5688 5688 5688 5688 5688 5688 5688 5688 5688 5688 5688 5689 5689 5690
5685 5685 5684 5683 5683 5683 5684 5684 5684 5685 5685 5686 5686 5686 5686 5687 5687 5687 5687 5686 5686 5686 5685 5685 5684 5683 5683 5682 5682 5681 5681 5681 5681 5681 5681 5681 5681 5681 5681 5681 5681 5681
5680 5679 5679 5678 5678 5678 5678 5679 5679 5679 5680 5680 5681 5681 5681 5681 5681 5681 5681 5681 5681 5680 5680 5679 5679 5678 5677 5677 5676 5675 5674 5674 5674 5674 5674 5673 5673 5673 5673 5673 5673 5673
5674 5673 5673 5673 5673 5672 5673 5674 5674 5674 5674 5675 5675 5675 5676 5676 5676 5676 5676 5676 5676 5675 5675 5674 5673 5672 5672 5671 5670 5669 5669 5668 5667 5667 5666 5666 5666 5666 5665 5665 5665 5665
5667 5667 5667 5667 5667 5666 5667 5668 5669 5669 5669 5669 5669 5670 5670 5670 5671 5671 5671 5671 5670 5670 5670 5669 5668 5667 5666 5665 5664 5663 5663 5662 5661 5660 5659 5659 5659 5658 5658 5657 5657 5657
5661 5662 5662 5661 5660 5661 5661 5662 5663 5664 5664 5664 5664 5664 5664 5665 5665 5665 5665 5665 5665 5665 5664 5663 5663 5661 5660 5659 5658 5656 5656 5655 5654 5653 5652 5651 5651 5651 5651 5650 5649 5649
5655 5656 5656 5655 5655 5655 5655 5656 5657 5658 5658 5658 5658 5658 5658 5658 5659 5659 5659 5659 5659 5659 5659 5658 5657 5656 5654 5653 5652 5650 5649 5648 5647 5646 5645 5644 5643 5642 5642 5642 5641 5641
5649 5649 5649 5649 5648 5648 5649 5650 5651 5651 5652 5652 5652 5652 5652 5652 5653 5653 5653 5653 5653 5653 5653 5652 5651 5650 5648 5647 5646 5644 5642 5640 5639 5638 5636 5635 5634 5633 5633 5632 5632 5632
5642 5643 5643 5643 5642 5642 5643 5644 5645 5645 5646 5646 5647 5646 5646 5647 5647 5647 5647 5647 5647 5647 5647 5646 5645 5643 5642 5641 5639 5638 5635 5633 5631 5629 5628 5627 5625 5624 5623 5622 5622 5622
5635 5636 5637 5637 5638 5638 5639 5639 5640 5640 5641 5641 5641 5641 5641 5641 5641 5641 5641 5641 5641 5641 5640 5640 5638 5636 5635 5634 5632 5630 5628 5626 5623 5621 5620 5618 5616 5615 5613 5613 5612 5612
5629 5630 5630 5631 5632 5633 5634 5634 5635 5635 5636 5636 5636 5635 5635 5635 5635 5635 5635 5635 5635 5635 5634 5633 5632 5629 5628 5626 5624 5622 5620 5618 5615 5613 5611 5609 5608 5606 5604 5603 5602 5601
5623 5623 5623 5623 5625 5627 5628 5629 5630 5630 5630 5630 5630 5629 5630 5629 5629 5629 5629 5629 5628 5628 5628 5626 5625 5622 5620 5618 5616 5613 5611 5609 5606 5604 5602 5600 5599 5597 5595 5594 5592 5591
5616 5615 5615 5616 5618 5620 5622 5623 5624 5624 5624 5624 5624 5624 5624 5624 5623 5623 5623 5623 5622 5622 5621 5619 5617 5615 5612 5610 5607 5604 5602 5599 5597 5595 5593 5591 5589 5588 5586 5584 5583 5582
5608 5608 5608 5610 5612 5614 5616 5617 5618 5618 5618 5618 5618 5619 5619 5618 5618 5617 5617 5616 5616 5615 5613 5612 5610 5607 5604 5601 5598 5595 5592 5590 5587 5585 5584 5582 5580 5579 5577 5576 5574 5573
5601 5601 5602 5603 5606 5608 5610 5612 5612 5612 5613 5613 5613 5613 5613 5612 5612 5611 5611 5610 5609 5608 5606 5603 5601 5599 5596 5592 5589 5586 5583 5580 5577 5575 5574 5572 5571 5569 5568 5566 5564 5562